This demonstration page uses our WeatherBlox Daily Observations layout. Learn more.

Left ArrowRight Arrow

Hourly Observations for September 22, 2016

Temp ( °F °C ) Dew Point ( °F °C ) Humidity (%) Winds ( mph kmh ) Pressure ( in mb ) Visibility ( mi km ) Precip ( " mm )
12:51 am 00:51 Mostly Clear 72 22.2 60 15.6 66 66 Calm 29.76 1008 10 16.0934 0 0
1:51 am 01:51 Mostly Clear 71 21.7 60 15.6 68 68 Calm 29.76 1008 10 16.0934 0 0
2:51 am 02:51 Clear 70 21.1 60 15.6 71 71 Calm 29.76 1008 10 16.0934 0 0
3:51 am 03:51 Clear 70 21.1 59 15 68 68 Calm 29.75 1008 10 16.0934 0 0
4:51 am 04:51 Clear 68 20 59 15 73 73 Calm 29.77 1008 10 16.0934 0 0
5:51 am 05:51 Clear 67 19.4 59 15 76 76 Calm 29.79 1009 10 16.0934 0 0
6:51 am 06:51 Sunny 69 20.6 60 15.6 73 73 ESE 3 6 29.81 1009 10 16.0934 0 0
7:51 am 07:51 Sunny 75 23.9 60 15.6 60 60 S 5 7 29.81 1010 10 16.0934 0 0
8:51 am 08:51 Sunny 79 26.1 59 15 50 50 SE 7 11 29.8 1009 10 16.0934 0 0
9:51 am 09:51 Sunny 82 27.8 59 15 46 46 SE 6 9 29.79 1009 10 16.0934 0 0
10:51 am 10:51 Sunny 87 30.6 58 14.4 37 37 SE 10 17 29.76 1008 10 16.0934 0 0
11:51 am 11:51 Sunny 90 32.2 53 11.7 28 28 SE 10 17 29.73 1007 10 16.0934 0 0
12:51 pm 12:51 Sunny 93 33.9 47 8.3 21 21 S 12 19 29.7 1006 10 16.0934 0 0
1:51 pm 13:51 Sunny 94 34.4 47 8.3 20 20 SSW 10 17 29.66 1004 10 16.0934 0 0
2:51 pm 14:51 Sunny 95 35 42 5.6 16 16 WSW 7 11 29.63 1003 10 16.0934 0 0
3:51 pm 15:51 Sunny 94 34.4 46 7.8 19 19 W 8 13 29.61 1003 10 16.0934 0 0
4:51 pm 16:51 Sunny 93 33.9 46 7.8 20 20 WNW 18 30 29.62 1003 10 16.0934 0 0
5:51 pm 17:51 Sunny 88 31.1 43 6.1 21 21 WNW 10 17 29.64 1004 10 16.0934 0 0
6:51 pm 18:51 Clear 81 27.2 41 5 24 24 NW 5 7 29.67 1005 10 16.0934 0 0
7:51 pm 19:51 Clear 79 26.1 52 11.1 39 39 NW 12 19 29.68 1005 10 16.0934 0 0
8:51 pm 20:51 Clear 79 26.1 57 13.9 47 47 NW 14 22 29.69 1006 10 16.0934 0 0.0254
9:51 pm 21:51 Clear 76 24.4 57 13.9 52 52 NNW 8 13 29.7 1006 10 16.0934 0 0
10:51 pm 22:51 Clear 74 23.3 58 14.4 57 57 ESE 9 15 29.72 1006 10 16.0934 0 0
11:51 pm 23:51 Clear 73 22.8 58 14.4 59 59 W 6 9 29.72 1007 10 16.0934 0 0

Powered by AerisWeather